CW0498 Weather Reports


Display with metric or nautical units.
time (UTC)temp
F
wind
direction
speed
MPH
gust
MPH
rain 1hr
in
rain 24hr
in
rain mn
in
humidity
%
barometer
mb
20260510153050 70 295 0.0 4.0 0.00 0.00 0.00 82 1018.4
20260510151546 69 0 0.0 2.0 0.00 0.00 0.00 84 1018.3
20260510150044 68 0 1.0 3.0 0.00 0.00 0.00 87 1018.5
20260510144544 67 0 0.0 1.0 0.00 0.00 0.00 89 1018.5
20260510143049 66 62 0.0 1.0 0.00 0.00 0.00 91 1018.6
20260510141540 65 0 0.0 1.0 0.00 0.00 0.00 92 1018.5
20260510140046 64 0 0.0 1.0 0.00 0.00 0.00 93 1018.5
20260510134551 63 0 0.0 1.0 0.00 0.00 0.00 94 1018.4
20260510133043 62 0 0.0 1.0 0.00 0.00 0.00 97 1018.4
20260510131546 61 0 0.0 1.0 0.00 0.00 0.00 97 1018.2
20260510130047 61 0 0.0 1.0 0.00 0.00 0.00 96 1018.2
20260510124549 61 278 0.0 1.0 0.00 0.00 0.00 96 1018.0
20260510123045 61 269 0.0 2.0 0.00 0.00 0.00 96 1017.7
20260510121542 61 0 0.0 1.0 0.00 0.00 0.00 96 1017.8
20260510120043 61 0 0.0 0.0 0.00 0.00 0.00 96 1017.4
20260510114538 60 237 0.0 0.0 0.00 0.00 0.00 96 1017.2
20260510113046 60 0 0.0 1.0 0.00 0.00 0.00 96 1017.1
20260510111553 60 0 0.0 1.0 0.00 0.00 0.00 96 1016.8
20260510110044 59 0 0.0 1.0 0.00 0.00 0.00 96 1016.6
20260510104549 59 0 0.0 1.0 0.00 0.00 0.00 96 1016.4
20260510103047 57 0 0.0 1.0 0.00 0.00 0.00 96 1016.1
20260510101548 56 0 0.0 0.0 0.00 0.00 0.00 95 1016.1
20260510100047 56 0 0.0 0.0 0.00 0.00 0.00 95 1015.8
20260510094537 56 0 0.0 0.0 0.00 0.00 0.00 95 1015.5
20260510093056 56 0 0.0 0.0 0.00 0.00 0.00 95 1015.5
20260510091543 57 0 0.0 0.0 0.00 0.00 0.00 96 1015.3
20260510090049 57 0 0.0 0.0 0.00 0.00 0.00 95 1015.1
20260510084539 57 0 0.0 0.0 0.00 0.00 0.00 96 1015.1
20260510083044 57 0 0.0 0.0 0.00 0.00 0.00 96 1014.9
20260510081610 58 0 0.0 0.0 0.00 0.00 0.00 96 1014.8
20260510080044 58 0 0.0 0.0 0.00 0.00 0.00 96 1014.7
20260510074543 58 0 0.0 0.0 0.00 0.00 0.00 96 1014.6
20260510073052 59 0 0.0 0.0 0.00 0.00 0.00 96 1014.5
20260510071538 59 0 0.0 0.0 0.00 0.00 0.00 96 1014.5
20260510070040 59 0 0.0 0.0 0.00 0.00 0.00 96 1014.4
20260510064554 59 0 0.0 0.0 0.00 0.00 0.00 96 1014.5
20260510063046 60 0 0.0 0.0 0.00 0.00 0.00 96 1014.5
20260510061547 60 0 0.0 0.0 0.00 0.00 0.00 96 1014.4
20260510060048 60 0 0.0 0.0 0.00 0.00 0.00 96 1014.5
20260510054545 60 0 0.0 0.0 0.00 0.00 0.00 96 1014.8
20260510053043 60 0 0.0 0.0 0.00 0.00 0.00 96 1014.8
20260510051542 60 0 0.0 0.0 0.00 0.00 0.00 96 1014.8
20260510050050 60 0 0.0 0.0 0.00 0.00 0.00 96 1015.1
20260510044555 61 0 0.0 0.0 0.00 0.00 0.00 96 1015.2
20260510043056 61 0 0.0 0.0 0.00 0.00 0.00 96 1015.0
20260510041547 61 0 0.0 0.0 0.00 0.00 0.00 96 1015.2
20260510040043 62 0 0.0 0.0 0.00 0.00 0.00 96 1015.3
20260510034537 62 0 0.0 0.0 0.00 0.00 0.00 96 1015.5
20260510033058 62 0 0.0 0.0 0.00 0.00 0.00 96 1015.6
20260510031544 62 0 0.0 0.0 0.00 0.00 0.00 95 1015.5
20260510030056 62 0 0.0 0.0 0.00 0.00 0.00 95 1015.4
20260510024538 62 0 0.0 0.0 0.00 0.00 0.00 94 1015.2
20260510023043 62 0 0.0 0.0 0.00 0.00 0.00 94 1015.1
20260510021544 63 0 0.0 0.0 0.00 0.00 0.00 93 1014.5
20260510020045 63 0 0.0 0.0 0.00 0.00 0.00 92 1014.3
20260510014553 64 0 0.0 0.0 0.00 0.00 0.00 92 1014.2
20260510013050 64 0 0.0 0.0 0.00 0.00 0.00 91 1014.1
20260510011546 65 0 0.0 0.0 0.00 0.00 0.00 90 1014.0
20260510010037 65 0 0.0 0.0 0.00 0.00 0.00 89 1013.9
20260510004546 65 0 0.0 0.0 0.00 0.00 0.00 88 1013.8
20260510003051 66 0 0.0 0.0 0.00 0.00 0.00 87 1013.5
20260510001543 67 0 0.0 0.0 0.00 0.00 0.00 86 1013.5
20260510000049 67 0 0.0 0.0 0.00 0.00 0.00 85 1013.3
20260509234552 68 0 0.0 0.0 0.00 0.00 0.00 84 1013.2
20260509233056 69 0 0.0 0.0 0.00 0.00 0.00 82 1013.1
20260509231544 69 0 0.0 0.0 0.00 0.00 0.00 81 1012.9
20260509230043 70 0 0.0 0.0 0.00 0.00 0.00 80 1012.6
20260509224542 71 0 0.0 0.0 0.00 0.00 0.00 78 1012.6
20260509223046 71 0 0.0 0.0 0.00 0.00 0.00 77 1012.6
20260509221541 72 0 0.0 1.0 0.00 0.00 0.00 76 1012.7
20260509220048 72 0 0.0 0.0 0.00 0.00 0.00 75 1012.5
20260509214548 73 0 0.0 0.0 0.00 0.00 0.00 74 1012.4
20260509213045 73 0 0.0 0.0 0.00 0.00 0.00 75 1012.4
20260509211545 73 198 0.0 0.0 0.00 0.00 0.00 74 1011.9
20260509210043 73 0 0.0 2.0 0.00 0.00 0.00 73 1011.8
20260509204540 73 0 0.0 1.0 0.00 0.00 0.00 73 1012.0
20260509203045 73 0 0.0 1.0 0.00 0.00 0.00 74 1012.3
20260509201554 74 232 0.0 2.0 0.00 0.00 0.00 73 1012.5
20260509200057 74 0 0.0 2.0 0.00 0.00 0.00 69 1012.4
20260509194545 73 0 0.0 1.0 0.00 0.00 0.00 74 1012.5
20260509193100 73 0 0.0 1.0 0.00 0.00 0.00 71 1012.6
20260509191545 72 0 0.0 2.0 0.00 0.00 0.00 74 1012.6
20260509190046 71 0 0.0 1.0 0.00 0.00 0.00 75 1012.8
20260509184558 71 0 0.0 1.0 0.00 0.00 0.00 74 1012.7
20260509183046 71 0 0.0 1.0 0.00 0.00 0.00 74 1012.9
20260509181547 71 113 0.0 1.0 0.00 0.00 0.00 75 1013.0
20260509180043 70 0 0.0 3.0 0.00 0.00 0.00 76 1013.1
20260509174545 69 227 0.0 1.0 0.00 0.00 0.00 78 1013.1
20260509173054 69 63 0.0 2.0 0.00 0.00 0.00 78 1013.0
20260509171603 67 0 0.0 2.0 0.00 0.00 0.00 84 1013.3
20260509170044 66 0 0.0 2.0 0.00 0.00 0.00 85 1013.5
20260509164543 66 114 1.0 6.0 0.00 0.00 0.00 86 1013.7
20260509163041 65 0 0.0 3.0 0.00 0.00 0.00 90 1013.7
20260509161538 65 0 0.0 1.0 0.00 0.00 0.00 90 1013.9
20260509160038 64 0 0.0 2.0 0.00 0.00 0.00 93 1013.8
20260509154538 63 0 0.0 2.0 0.00 0.00 0.00 93 1013.7